Augusta Bush, GA

4:12 PM EST on November 24, 2017 (GMT -0500)
Augusta Regional At Bush

Weather History for KAGS - June, 2013

Change the Weather History Date:

Monday, June 24, 2013

  Actual Average Record
Temperature  
Mean Temperature 79 °F 80 °F  
Max Temperature 89 °F 92 °F 103 °F (1914)
Min Temperature 68 °F 68 °F 54 °F (1972)
Degree Days  
Heating Degree Days 0 0  
Month to date heating degree days 0 0  
Since 1 June heating degree days 0 0  
Since 1 July heating degree days 2386 2471  
Cooling Degree Days 14 15  
Month to date cooling degree days 303 316  
Year to date cooling degree days 512 599  
Since 1 June cooling degree days 303 316  
Growing Degree Days 28 (Base 50)    
Moisture  
Dew Point 71 °F    
Average Humidity 82    
Maximum Humidity 100    
Minimum Humidity 63    
Precipitation  
Precipitation 1.24 in 0.15 in 1.35 in (1884)
Month to date precipitation 8.94 3.84  
Year to date precipitation 28.54 21.34  
Sea Level Pressure  
Sea Level Pressure 30.17 in    
Wind  
Wind Speed 3 mph (SE)    
Max Wind Speed 29 mph    
Max Gust Speed 38 mph    
Visibility 7 miles    
Events Fog , Rain , Thunderstorm    
T = Trace of Precipitation, MM = Missing Value Source: NWS Daily Summary

Daily Weather History Graph

Daily Weather History Graph

Search for Another Location

Airport or City:

Trip Planner

Search our weather history database for the weather conditions in past years. The results will help you decide how hot, cold, wet, or windy it might be!

Date:

Astronomy

Jun. 24, 2013 Rise Set
Actual Time 6:19 AM EDT 8:41 PM EDT
Civil Twilight 5:50 AM EDT 9:10 PM EDT
Nautical Twilight 5:15 AM EDT 9:45 PM EDT
Astronomical Twilight 4:36 AM EDT 10:24 PM EDT
Moon 9:49 PM EDT 7:40 AM EDT
Length of Visible Light 15h 19m
Length of Day
14h 21m
Full, 98% of the Moon is Illuminated
Jun 24
Full
Jun 30
Last Quarter
Jul 8
New
Jul 15
First Quarter
Jul 22
Full

Hourly Weather History & Observations

Time (EDT) Temp. Heat Index Dew Point Humidity Pressure Visibility Wind Dir Wind Speed Gust Speed Precip Events Conditions
12:53 AM 72.0 °F - 70.0 °F 93% 30.17 in 10.0 mi Calm Calm - N/A   Partly Cloudy
1:53 AM 71.1 °F - 70.0 °F 96% 30.17 in 10.0 mi Calm Calm - N/A   Clear
2:06 AM 69.8 °F - 69.8 °F 100% 30.17 in 1.8 mi Calm Calm - 0.01 in   Clear
2:15 AM 71.6 °F - 69.8 °F 94% 30.17 in 3.0 mi Calm Calm - 0.01 in   Clear
2:53 AM 71.1 °F - 70.0 °F 96% 30.17 in 10.0 mi Calm Calm - 0.01 in   Clear
3:53 AM 71.1 °F - 70.0 °F 96% 30.17 in 8.0 mi Calm Calm - N/A   Clear
4:53 AM 69.1 °F - 68.0 °F 96% 30.17 in 8.0 mi Calm Calm - 0.00 in   Partly Cloudy
5:13 AM 69.8 °F - 68.0 °F 94% 30.17 in 3.0 mi Calm Calm - N/A   Scattered Clouds
5:22 AM 69.8 °F - 68.0 °F 94% 30.17 in 7.0 mi Calm Calm - N/A   Mostly Cloudy
5:31 AM 69.8 °F - 69.8 °F 100% 30.17 in 7.0 mi Calm Calm - N/A   Overcast
5:37 AM 69.8 °F - 69.8 °F 100% 30.17 in 1.8 mi Calm Calm - 0.01 in   Overcast
5:53 AM 69.1 °F - 69.1 °F 100% 30.18 in 1.0 mi Calm Calm - 0.01 in   Overcast
6:01 AM 69.8 °F - 69.8 °F 100% 30.18 in 0.2 mi Calm Calm - N/A Fog Fog
6:23 AM 69.8 °F - 69.8 °F 100% 30.18 in 0.2 mi Calm Calm - 0.01 in Fog Fog
6:33 AM 69.8 °F - 69.8 °F 100% 30.18 in 0.2 mi Calm Calm - 0.01 in Fog Fog
6:53 AM 71.1 °F - 71.1 °F 100% 30.18 in 0.2 mi SSE 4.6 mph - 0.01 in Fog Fog
7:23 AM 71.6 °F - 71.6 °F 100% 30.19 in 0.5 mi SE 3.5 mph - N/A Fog Fog
7:53 AM 72.0 °F - 72.0 °F 100% 30.20 in 2.0 mi ESE 3.5 mph - N/A   Overcast
8:26 AM 73.4 °F - 73.4 °F 100% 30.21 in 4.0 mi Calm Calm - N/A   Mostly Cloudy
8:53 AM 75.0 °F - 73.0 °F 94% 30.22 in 5.0 mi Calm Calm - N/A   Mostly Cloudy
9:48 AM 80.6 °F 84.6 °F 71.6 °F 74% 30.21 in 10.0 mi Calm Calm - N/A   Scattered Clouds
9:53 AM 79.0 °F - 72.0 °F 79% 30.21 in 10.0 mi WSW 5.8 mph - N/A   Scattered Clouds
10:53 AM 82.9 °F 88.0 °F 72.0 °F 69% 30.22 in 10.0 mi Calm Calm - N/A   Scattered Clouds
11:53 AM 86.0 °F 93.0 °F 73.0 °F 65% 30.21 in 10.0 mi SW 3.5 mph - N/A   Mostly Cloudy
12:03 PM 87.8 °F 93.8 °F 71.6 °F 58% 30.21 in 10.0 mi South 4.6 mph - N/A   Mostly Cloudy
12:53 PM 87.1 °F 94.5 °F 73.0 °F 63% 30.19 in 10.0 mi South 9.2 mph - N/A   Mostly Cloudy
1:00 PM 86.0 °F 91.8 °F 71.6 °F 62% 30.19 in 10.0 mi WSW 8.1 mph - N/A   Scattered Clouds
1:07 PM 87.8 °F 95.6 °F 73.4 °F 62% 30.20 in 10.0 mi WSW 6.9 mph - N/A Thunderstorm Thunderstorm
1:53 PM 84.9 °F 89.4 °F 70.0 °F 61% 30.17 in 10.0 mi NE 11.5 mph - N/A Thunderstorm Thunderstorm
2:26 PM 82.4 °F 86.3 °F 69.8 °F 66% 30.16 in 10.0 mi ENE 8.1 mph - N/A   Overcast
2:42 PM 86.0 °F 91.8 °F 71.6 °F 62% 30.15 in 10.0 mi NE 4.6 mph - N/A Thunderstorm Thunderstorm
2:53 PM 84.9 °F 89.4 °F 70.0 °F 61% 30.14 in 10.0 mi NNE 5.8 mph - N/A Thunderstorm Thunderstorm
3:45 PM 75.2 °F - 68.0 °F 78% 30.17 in 1.2 mi WNW 23.0 mph 38.0 mph 0.01 in Rain , Thunderstorm Heavy Thunderstorms and Rain
3:50 PM 73.4 °F - 69.8 °F 88% 30.18 in 0.2 mi NNW 21.9 mph 33.4 mph 0.24 in Fog , Rain , Thunderstorm Heavy Thunderstorms and Rain
3:53 PM 73.9 °F - 70.0 °F 87% 30.15 in 0.2 mi NNE 16.1 mph 32.2 mph 0.40 in Fog , Rain , Thunderstorm Heavy Thunderstorms and Rain
4:06 PM 71.6 °F - 69.8 °F 94% 30.15 in 1.0 mi SE 8.1 mph 18.4 mph 0.54 in Rain , Thunderstorm Heavy Thunderstorms and Rain
4:24 PM 73.4 °F - 69.8 °F 88% 30.15 in 4.0 mi Calm Calm - 0.80 in Rain , Thunderstorm Light Thunderstorms and Rain
4:53 PM 75.9 °F - 73.0 °F 91% 30.15 in 10.0 mi Calm Calm - 0.80 in Thunderstorm Scattered Clouds
5:12 PM 73.4 °F - 69.8 °F 88% 30.16 in 10.0 mi Calm Calm - N/A   Mostly Cloudy
5:29 PM 75.2 °F - 71.6 °F 89% 30.16 in 10.0 mi ENE 4.6 mph - N/A Thunderstorm Overcast
5:53 PM 75.0 °F - 71.1 °F 87% 30.14 in 10.0 mi Calm Calm - N/A   Partly Cloudy
6:53 PM 75.9 °F - 71.1 °F 85% 30.12 in 10.0 mi SSE 3.5 mph - 0.00 in   Partly Cloudy
7:53 PM 75.9 °F - 72.0 °F 87% 30.16 in 10.0 mi SSE 4.6 mph - N/A   Mostly Cloudy
8:53 PM 73.9 °F - 71.1 °F 91% 30.16 in 10.0 mi Calm Calm - N/A   Clear
9:53 PM 73.0 °F - 71.1 °F 93% 30.14 in 10.0 mi SE 3.5 mph - N/A   Clear
10:53 PM 72.0 °F - 71.1 °F 97% 30.14 in 10.0 mi South 5.8 mph - 0.01 in   Clear
11:53 PM 71.1 °F - 70.0 °F 96% 30.16 in 10.0 mi NE 3.5 mph - N/A   Clear